This is the latest recevied weather packets stored in our database for station/object EA1RCC-1. If no packets are shown the sender has not sent any weather packets the latest 10 day(s).
| Time | Temp. | Humidity | Pressure | Rain* | Wind** | Luminosity | Snow |
|---|---|---|---|---|---|---|---|
| 1777198425 | 18.33° C | 13% | 1018 hPa | 0 mm | - | - | - |
| 1777196020 | 17.22° C | 13% | 1018 hPa | 0 mm | - | - | - |
| 1777190818 | 16.67° C | 16% | 1019 hPa | 0 mm | - | - | - |
| 1777188415 | 12.78° C | 17% | 1019 hPa | 0 mm | - | - | - |
| 1777187814 | 13.33° C | 17% | 1019 hPa | 0 mm | - | - | - |
| 1777186612 | 14.44° C | 17% | 1019 hPa | 0 mm | - | - | - |
| 1777184677 | 8.33° C | 10% | - | 0 mm | - | - | - |
| 1777184076 | 8.89° C | 10% | - | 0 mm | - | - | - |
| 1777182873 | 6.67° C | 93% | 1019 hPa | 0 mm | - | - | - |
| 1777180335 | 8.33° C | 93% | 1018 hPa | 0 mm | - | - | - |
| 1777177932 | 10.56° C | 93% | 1018 hPa | 0 mm | - | - | - |
| 1777166585 | 8.89° C | 88% | 1018 hPa | 0 mm | - | - | - |
| 1777165984 | 9.44° C | 88% | 1018 hPa | 0 mm | - | - | - |
| 1777163446 | 11.11° C | 88% | 1018 hPa | 0 mm | - | - | - |
| 1777156570 | 11.67° C | 82% | 1018 hPa | 0 mm | - | - | - |
| 1777155367 | 12.78° C | 82% | 1019 hPa | 0 mm | - | - | - |
| 1777153564 | 14.44° C | 82% | 1019 hPa | 0 mm | - | - | - |
| 1777152964 | 8.89° C | 59% | 1019 hPa | 0 mm | - | - | - |
| 1777150300 | 10° C | 59% | 1019 hPa | 0 mm | - | - | - |
| 1777139689 | 17.78° C | 59% | 1015 hPa | 0 mm | - | - | - |
| 1777135953 | 20° C | 10% | 1014 hPa | 0 mm | - | - | - |
| 1777135351 | 20° C | 10% | 1014 hPa | 0 mm | - | - | - |
| 1777134019 | 20.56° C | 10% | 1014 hPa | 0 mm | - | - | - |
| 1777128007 | 20° C | 10% | 1014 hPa | 0 mm | - | - | - |
| 1777124273 | 20° C | 13% | 1015 hPa | 0 mm | - | - | - |
* Rain latest hour (hover to see other rain measurements)
** Current wind speed in m/s (hover to see current wind gust speed)